Tracking 17886 objects as of 9-December-2016
HD Live streaming from Space Station
objects crossing your sky now

ZY 3

Track ZY 3 now!
10-day predictions
ZY 3 is classified as:


NORAD ID: 38046
Int'l Code: 2012-001A
Perigee: 508.1 km
Apogee: 509.6 km
Inclination: 97.3 °
Period: 94.7 minutes
Semi major axis: 6879 km
RCS: 5.391 m2 (large)
Launch date: January 9, 2012
Source: People's Republic of China (PRC)
Launch site: Taiyaun Space Center, China (TSC)
Your satellite tracking list
Your tracking list is empty





NASA's NSSDC Master Catalog

Two Line Element Set (TLE):
1 38046U 12001A   16344.10271497  .00001005  00000-0  47857-4 0  9995
2 38046  97.3099  50.2226 0001087  64.3872  22.9228 15.21359548273058
Source of the keplerian elements: AFSPC